K7OLI-13 Weather Reports


Display with metric or nautical units.
time (UTC)temp
F
wind
direction
speed
MPH
gust
MPH
rain 1hr
in
rain 24hr
in
rain mn
in
humidity
%
barometer
mb
20260902095033 59 139 4.0 6.0 0.00 0.00 0.00 83
20260902094022 59 111 3.0 5.0 0.00 0.00 0.00 82
20260902093048 59 113 4.0 5.0 0.00 0.00 0.00 81
20260902092019 60 109 3.0 5.0 0.00 0.00 0.00 79
20260902091027 60 88 4.0 6.0 0.00 0.00 0.00 78
20260902090035 60 123 4.0 6.0 0.00 0.00 0.00 78
20260902085045 60 139 5.0 6.0 0.00 0.00 0.00 79
20260902084032 60 120 4.0 7.0 0.00 0.00 0.00 80
20260902083041 60 151 4.0 6.0 0.00 0.00 0.00 80
20260902082050 60 176 2.0 3.0 0.00 0.00 0.00 81
20260902081019 59 167 2.0 4.0 0.00 0.00 0.00 82
20260902080047 59 163 2.0 3.0 0.00 0.00 0.00 82
20260902075035 59 165 2.0 4.0 0.00 0.00 0.00 82
20260902074027 59 136 3.0 6.0 0.00 0.00 0.00 83
20260902073052 60 140 4.0 6.0 0.00 0.00 0.00 83
20260902072027 60 131 4.0 7.0 0.00 0.00 0.00 83
20260902071049 60 140 3.0 4.0 0.00 0.00 0.00 83
20260902070019 60 133 3.0 5.0 0.00 0.00 0.00 82
20260902065027 61 128 5.0 6.0 0.00 0.00 0.00 82
20260902064034 61 139 5.0 7.0 0.00 0.00 0.00 81
20260902063024 62 155 6.0 8.0 0.00 0.00 0.00 80
20260902062052 62 163 6.0 10.0 0.00 0.00 0.00 79
20260902061022 62 133 5.0 8.0 0.00 0.00 0.00 79
20260902060030 62 142 6.0 10.0 0.00 0.00 0.00 79
20260902055037 62 129 6.0 7.0 0.00 0.00 0.00 79
20260902054027 62 129 5.0 7.0 0.00 0.00 0.00 79
20260902053035 62 110 4.0 5.0 0.00 0.00 0.00 78
20260902052024 62 140 4.0 7.0 0.00 0.00 0.00 78
20260902051033 62 124 3.0 5.0 0.00 0.00 0.00 77